This is the latest recevied weather packets stored in our database for station/object SQ7IQO. If no packets are shown the sender has not sent any weather packets the latest 10 day(s).
| Time | Temp. | Humidity | Pressure | Rain* | Wind** | Luminosity | Snow |
|---|---|---|---|---|---|---|---|
| 1787755298 | 24.44° C | 48% | 1023.4 hPa | 0 mm | 0 m/s | - | - |
| 1787755238 | 23.89° C | 48% | 1023.4 hPa | 0 mm | 0 m/s | - | - |
| 1787755178 | 23.89° C | 51% | 1023.3 hPa | 0 mm | 0 m/s | - | - |
| 1787755118 | 23.33° C | 52% | 1023.3 hPa | 0 mm | 0 m/s | - | - |
| 1787755058 | 23.33° C | 50% | 1023.4 hPa | 0 mm | 0 m/s | - | - |
| 1787754998 | 23.33° C | 50% | 1023.4 hPa | 0 mm | 0 m/s | - | - |
| 1787754938 | 23.89° C | 51% | 1023.4 hPa | 0 mm | 0 m/s | - | - |
| 1787754878 | 23.89° C | 48% | 1023.4 hPa | 0 mm | 0 m/s | - | - |
| 1787754818 | 24.44° C | 50% | 1023.4 hPa | 0 mm | 0 m/s | - | - |
| 1787754758 | 24.44° C | 51% | 1023.4 hPa | 0 mm | 0 m/s | - | - |
| 1787754698 | 23.89° C | 51% | 1023.4 hPa | 0 mm | 0 m/s | - | - |
| 1787754638 | 23.89° C | 50% | 1023.4 hPa | 0 mm | 0 m/s | - | - |
| 1787754578 | 23.89° C | 50% | 1023.4 hPa | 0 mm | 0 m/s | - | - |
| 1787754518 | 23.89° C | 52% | 1443.1 hPa | 0 mm | 0 m/s | - | - |
| 1787754458 | 23.89° C | 55% | 1023.4 hPa | 0 mm | 0 m/s | - | - |
| 1787754398 | 23.33° C | 55% | 1023.4 hPa | 0 mm | 0 m/s | - | - |
| 1787754338 | 23.33° C | 53% | 1023.4 hPa | 0 mm | 0 m/s | - | - |
| 1787754278 | 23.33° C | 55% | 1023.4 hPa | 0 mm | 0 m/s | - | - |
| 1787754218 | 22.78° C | 54% | 1023.4 hPa | 0 mm | 0 m/s | - | - |
| 1787754158 | 22.78° C | 53% | 1023.5 hPa | 0 mm | 0 m/s | - | - |
| 1787754098 | 22.78° C | 55% | 1023.5 hPa | 0 mm | 0 m/s | - | - |
| 1787754038 | 22.78° C | 55% | 1023.5 hPa | 0 mm | 0 m/s | - | - |
| 1787753978 | 22.78° C | 56% | 1023.5 hPa | 0 mm | 0 m/s | - | - |
| 1787753918 | 22.78° C | 53% | 1023.5 hPa | 0 mm | 0 m/s | - | - |
| 1787753858 | 22.22° C | 56% | 1023.5 hPa | 0 mm | 0.45 m/s, ° | - | - |
* Rain latest hour (hover to see other rain measurements)
** Current wind speed in m/s (hover to see current wind gust speed)